Leesburg, VA

10:37 PM EDT on March 23, 2017 (GMT -0400)
Leesburg Executive

Weather History for KJYO - February, 2013

Change the Weather History Date:

Wednesday, February 13, 2013

  Actual Average (KIAD) Record (KIAD)
Temperature  
Mean Temperature 38 °F -  
Max Temperature 44 °F 41 °F 65 °F (1974)
Min Temperature 32 °F 21 °F -8 °F (1983)
Degree Days  
Heating Degree Days 27    
Moisture  
Dew Point 32 °F    
Average Humidity 86    
Maximum Humidity 100    
Minimum Humidity 61    
Precipitation  
Precipitation 0.10 in - - ()
Sea Level Pressure  
Sea Level Pressure 29.81 in    
Wind  
Wind Speed 4 mph (NNE)    
Max Wind Speed 8 mph    
Max Gust Speed -    
Visibility 8 miles    
Events Rain , Snow    
Averages and records for this station are not official NWS values.
T = Trace of Precipitation, MM = Missing Value Source: NWS Daily Summary

Daily Weather History Graph

Daily Weather History Graph

Search for Another Location

Airport or City:

Trip Planner

Search our weather history database for the weather conditions in past years. The results will help you decide how hot, cold, wet, or windy it might be!

Date:

Astronomy

Feb. 13, 2013 Rise Set
Actual Time 7:03 AM EST 5:45 PM EST
Civil Twilight 6:36 AM EST 6:12 PM EST
Nautical Twilight 6:05 AM EST 6:44 PM EST
Astronomical Twilight 5:34 AM EST 7:15 PM EST
Moon 8:34 AM EST (2/13) 9:43 PM EST (2/13)
Length of Visible Light 11h 36m
Length of Day
10h 41m
Waxing Crescent, 13% of the Moon is Illuminated
Feb 13
Waxing Crescent
Feb 17
First Quarter
Feb 25
Full
Mar 4
Last Quarter
Mar 11
New

Hourly Weather History & Observations

Time (EST) Temp. Windchill Dew Point Humidity Pressure Visibility Wind Dir Wind Speed Gust Speed Precip Events Conditions
12:15 AM 39.2 °F 35.9 °F 32.0 °F 75% 29.95 in 10.0 mi NE 4.6 mph - N/A   Clear
12:35 AM 37.4 °F - 32.0 °F 81% 29.95 in 10.0 mi Calm Calm - N/A   Clear
12:55 AM 37.4 °F 34.9 °F 32.0 °F 81% 29.97 in 10.0 mi NNE 3.5 mph - N/A   Clear
1:15 AM 35.6 °F - 30.2 °F 81% 29.95 in 10.0 mi Calm Calm - N/A   Clear
1:35 AM 35.6 °F 32.8 °F 32.0 °F 87% 29.95 in 10.0 mi NNE 3.5 mph - N/A   Clear
1:55 AM 35.6 °F 31.7 °F 32.0 °F 87% 29.94 in 10.0 mi NNE 4.6 mph - N/A   Clear
2:15 AM 33.8 °F 30.8 °F 32.0 °F 93% 29.93 in 10.0 mi NNE 3.5 mph - N/A   Clear
2:35 AM 33.8 °F - 30.2 °F 87% 29.93 in 10.0 mi Calm Calm - N/A   Clear
2:55 AM 33.8 °F 29.6 °F 30.2 °F 87% 29.92 in 10.0 mi North 4.6 mph - N/A   Clear
3:15 AM 33.8 °F 30.8 °F 30.2 °F 87% 29.91 in 10.0 mi North 3.5 mph - N/A   Clear
3:35 AM 33.8 °F 28.6 °F 30.2 °F 87% 29.91 in 10.0 mi North 5.8 mph - N/A   Clear
3:55 AM 33.8 °F 29.6 °F 30.2 °F 87% 29.90 in 10.0 mi NNE 4.6 mph - N/A   Clear
4:15 AM 33.8 °F 28.6 °F 30.2 °F 87% 29.90 in 10.0 mi NNE 5.8 mph - N/A   Clear
4:35 AM 32.0 °F 25.6 °F 30.2 °F 93% 29.90 in 10.0 mi North 6.9 mph - N/A   Clear
4:55 AM 32.0 °F 27.5 °F 30.2 °F 93% 29.91 in 10.0 mi North 4.6 mph - N/A   Clear
5:15 AM 32.0 °F 28.7 °F 30.2 °F 93% 29.90 in 10.0 mi North 3.5 mph - N/A   Clear
5:35 AM 32.0 °F 28.7 °F 30.2 °F 93% 29.90 in 10.0 mi North 3.5 mph - N/A   Clear
5:55 AM 32.0 °F - 30.2 °F 93% 29.90 in 10.0 mi Calm Calm - N/A   Clear
6:15 AM 32.0 °F 28.7 °F 30.2 °F 93% 29.90 in 10.0 mi North 3.5 mph - N/A   Mostly Cloudy
6:35 AM 32.0 °F 26.4 °F 30.2 °F 93% 29.89 in 10.0 mi North 5.8 mph - N/A   Overcast
6:55 AM 32.0 °F - 30.2 °F 93% 29.88 in 10.0 mi Calm Calm - N/A   Overcast
7:15 AM 32.0 °F 26.4 °F 30.2 °F 93% 29.88 in 10.0 mi North 5.8 mph - N/A   Overcast
7:35 AM 32.0 °F 27.5 °F 30.2 °F 93% 29.88 in 10.0 mi North 4.6 mph - N/A   Overcast
7:55 AM 33.8 °F 30.8 °F 30.2 °F 87% 29.90 in 10.0 mi North 3.5 mph - N/A   Overcast
8:15 AM 33.8 °F - 30.2 °F 87% 29.90 in 10.0 mi Calm Calm - N/A   Overcast
8:35 AM 33.8 °F 30.8 °F 32.0 °F 93% 29.89 in 10.0 mi North 3.5 mph - N/A   Overcast
8:55 AM 35.6 °F - 30.2 °F 81% 29.89 in 10.0 mi Calm Calm - N/A   Overcast
9:15 AM 35.6 °F 31.7 °F 30.2 °F 81% 29.87 in 10.0 mi NNE 4.6 mph - N/A   Overcast
9:35 AM 35.6 °F 31.7 °F 30.2 °F 81% 29.86 in 10.0 mi NE 4.6 mph - N/A   Overcast
9:55 AM 35.6 °F 31.7 °F 30.2 °F 81% 29.86 in 10.0 mi NE 4.6 mph - N/A   Overcast
10:15 AM 35.6 °F - 30.2 °F 81% 29.86 in 10.0 mi Calm Calm - N/A   Overcast
10:35 AM 35.6 °F - 30.2 °F 81% 29.86 in 10.0 mi Calm Calm - N/A   Overcast
10:55 AM 37.4 °F 33.8 °F 32.0 °F 81% 29.85 in 10.0 mi NNE 4.6 mph - N/A   Overcast
11:15 AM 37.4 °F 33.8 °F 32.0 °F 81% 29.83 in 10.0 mi NNE 4.6 mph - N/A   Overcast
11:35 AM 39.2 °F 37.0 °F 32.0 °F 75% 29.82 in 10.0 mi NNE 3.5 mph - N/A   Mostly Cloudy
11:55 AM 41.0 °F 39.0 °F 32.0 °F 70% 29.80 in 10.0 mi East 3.5 mph - N/A   Mostly Cloudy
12:15 PM 41.0 °F 39.0 °F 32.0 °F 70% 29.78 in 10.0 mi East 3.5 mph - N/A   Mostly Cloudy
12:35 PM 42.8 °F 40.1 °F 32.0 °F 66% 29.77 in 10.0 mi East 4.6 mph - N/A   Scattered Clouds
12:55 PM 42.8 °F 41.1 °F 32.0 °F 66% 29.77 in 10.0 mi SE 3.5 mph - N/A   Mostly Cloudy
1:15 PM 42.8 °F - 32.0 °F 66% 29.76 in 10.0 mi Calm Calm - N/A   Overcast
1:35 PM 42.8 °F 39.3 °F 32.0 °F 66% 29.74 in 10.0 mi North 5.8 mph - N/A   Overcast
1:55 PM 42.8 °F 39.3 °F 32.0 °F 66% 29.73 in 10.0 mi North 5.8 mph - N/A   Overcast
2:15 PM 42.8 °F 40.1 °F 32.0 °F 66% 29.71 in 10.0 mi North 4.6 mph - N/A   Overcast
2:35 PM 44.6 °F 43.1 °F 32.0 °F 61% 29.69 in 10.0 mi NNE 3.5 mph - N/A   Overcast
2:55 PM 44.6 °F 41.4 °F 32.0 °F 61% 29.68 in 10.0 mi NNE 5.8 mph - N/A   Overcast
3:15 PM 44.6 °F 40.7 °F 32.0 °F 61% 29.68 in 10.0 mi North 6.9 mph - N/A   Overcast
3:35 PM 42.8 °F 39.3 °F 33.8 °F 70% 29.67 in 10.0 mi North 5.8 mph - N/A   Drizzle
3:55 PM 42.8 °F 38.6 °F 33.8 °F 70% 29.67 in 10.0 mi North 6.9 mph - N/A Rain Light Rain
4:15 PM 41.0 °F 35.8 °F 33.8 °F 76% 29.67 in 7.0 mi NNE 8.1 mph - N/A Rain Rain
4:55 PM 37.4 °F 33.8 °F 35.6 °F 93% 29.68 in 4.0 mi NNE 4.6 mph - 0.01 in Rain Light Rain
5:15 PM 37.4 °F 32.8 °F 35.6 °F 93% 29.68 in 3.0 mi NNE 5.8 mph - 0.01 in Rain Rain
5:35 PM 37.4 °F 33.8 °F 35.6 °F 93% 29.68 in 3.0 mi NNE 4.6 mph - 0.03 in Rain Light Rain
5:55 PM 35.6 °F 29.2 °F 35.6 °F 100% 29.69 in 4.0 mi NNE 8.1 mph - 0.04 in Rain Light Rain
6:15 PM 35.6 °F 31.7 °F 35.6 °F 100% 29.68 in 2.5 mi NNE 4.6 mph - 0.01 in Snow Light Snow
6:35 PM 35.6 °F 31.7 °F 35.6 °F 100% 29.69 in 2.5 mi NNE 4.6 mph - 0.02 in Snow Light Snow
6:55 PM 35.6 °F 29.9 °F 35.6 °F 100% 29.71 in 2.5 mi North 6.9 mph - 0.04 in Snow Light Snow
7:15 PM 33.8 °F 28.6 °F 33.8 °F 100% 29.71 in 1.5 mi North 5.8 mph - N/A Snow Light Snow
7:35 PM 33.8 °F 30.8 °F 33.8 °F 100% 29.72 in 1.5 mi North 3.5 mph - 0.01 in Snow Light Snow
7:55 PM 33.8 °F 29.6 °F 33.8 °F 100% 29.72 in 1.2 mi North 4.6 mph - 0.01 in Snow Light Snow
8:15 PM 33.8 °F 27.7 °F 33.8 °F 100% 29.73 in 1.0 mi North 6.9 mph - N/A Snow Light Snow
8:35 PM 33.8 °F 29.6 °F 33.8 °F 100% 29.73 in 1.0 mi NNW 4.6 mph - N/A Snow Light Snow
8:55 PM 33.8 °F 29.6 °F 33.8 °F 100% 29.74 in 1.5 mi NNW 4.6 mph - N/A Snow Light Snow
9:15 PM 33.8 °F 28.6 °F 33.8 °F 100% 29.75 in 2.0 mi North 5.8 mph - N/A Snow Light Snow
9:35 PM 33.8 °F - 33.8 °F 100% 29.75 in 3.0 mi Calm Calm - N/A Snow Light Snow
9:55 PM 33.8 °F 30.8 °F 33.8 °F 100% 29.76 in 3.0 mi NNW 3.5 mph - N/A   Overcast
10:15 PM 33.8 °F 30.8 °F 33.8 °F 100% 29.76 in 3.0 mi NNW 3.5 mph - N/A   Overcast
10:35 PM 33.8 °F 29.6 °F 33.8 °F 100% 29.76 in 4.0 mi NNW 4.6 mph - N/A   Overcast
10:55 PM 33.8 °F - 33.8 °F 100% 29.77 in 4.0 mi Calm Calm - N/A   Overcast
11:15 PM 33.8 °F - 33.8 °F 100% 29.77 in 4.0 mi Calm Calm - N/A   Mostly Cloudy
11:35 PM 33.8 °F 29.6 °F 33.8 °F 100% 29.79 in 4.0 mi NNW 4.6 mph - N/A   Mostly Cloudy
11:55 PM 33.8 °F 30.8 °F 33.8 °F 100% 29.80 in 3.0 mi West 3.5 mph - N/A   Overcast